Terminal Aerodrome Forecast
Issued by NWS Los Angeles, CA

Home | Current Version | Previous Version | Text Only | Print | Product List | Glossary On
Versions: 1 2 3 4 5 6 7 8 9 10 11 12 13 14 15 16 17 18 19 20 21 22 23
000
FTUS46 KLOX 262341
TAFSMX
TAF
KSMX 262341Z 2700/2724 29016G25KT P6SM SCT080
     FM270200 31010KT P6SM BKN050 BKN100
     FM270730 32006KT P6SM VCSH BKN025 OVC050
     FM271200 33008KT P6SM SCT025 BKN050
     FM271700 32015G25KT P6SM SCT050
     FM272100 32025G33KT P6SM SKC=

USA.gov is the U.S. government's official web portal to all federal, state and local government web resources and services.